星链-1585 (STARLINK-1585 )

导读 | 星芒AI

STARLINK-1585 是 SpaceX Starlink 项目中的一颗低轨通信卫星,属于第 15 批部署的星链卫星群。该卫星于 2021 年 5 月 28 日由猎鹰 9 号火箭成功送入近地轨道,旨在为全球提供高速互联网服务。它运行在约 550 公里的高度,设计寿命约 5 年,具备自动避障和激光通信能力,提升了网络稳定性和传输效率。作为星链计划的重要组成部分,STARLINK-1585 有助于扩大卫星互联网覆盖范围,特别是在偏远和网络基础设施薄弱的地区。

基本信息
目录编号:
46117
目录名称:
STARLINK-1585
国际标识:
2020-057A
轨道中心:
EARTH
卫星名称:
星链-1585
卫星全名:
星链-1585 (STARLINK-1585 )
卫星状态:
在轨 (已飞行1946 天)
发射日期:
2020-08-18 UTC
国别 :
美国 (US)
星等 :
--
轨道信息
数据来源 国际轨道数据
星历时间: 2025-12-15T16:00:02+0800
18小时前
查看轨道信息
半长轴: 6795.94km
偏心率: 0.0012072
轨道倾角: 53.052°
近地点辐角 71.629°
升交点赤经 300.744°
平近点角 41.553°
近地点: 409.6km
远地点: 426.01km
周期: 92.925分钟
每日圈数: 15.496319
详细信息
固有亮度:
5
最大亮度:
2.5
卫星平台:
Starlink V1.0
覆盖范围:
全球
运营商:
太空探索技术公司
运营商所在国:
美国
制造商(研发单位):
太空探索技术公司
制造商所在国:
美国
使用方式:
暂无
卫星简介
星链(Starlink)计划是由太空探索技术公司(SpaceX)提出的一个巨型低轨卫星互联网星座项目,计划在2019年至2024年间在太空搭建由约1.2万颗卫星组成的“星链”网络,其中1584颗将部署在地球上空550千米处的近地轨道,并从2020年开始工作。该卫星仍在工作。
2D轨道图
3D轨道图
轨道高度分析图
轨道倾角分析图
轨道综合分析图
查看轨道综合分析图